Mineral Point, WI

9:26 AM CDT on August 20, 2017 (GMT -0500)
Iowa County

Weather History for KMRJ - January, 2014

Change the Weather History Date:

Wednesday, January 1, 2014

  Actual Average (KLNR) Record (KLNR)
Temperature  
Mean Temperature 8 °F -  
Max Temperature 12 °F 28 °F 44 °F (1998)
Min Temperature 3 °F 13 °F -13 °F (2001)
Degree Days  
Heating Degree Days 58    
Moisture  
Dew Point -2 °F    
Average Humidity 64    
Maximum Humidity 72    
Minimum Humidity 57    
Precipitation  
Precipitation 0.00 in - - ()
Sea Level Pressure  
Sea Level Pressure 30.26 in    
Wind  
Wind Speed 11 mph (NNE)    
Max Wind Speed 14 mph    
Max Gust Speed 20 mph    
Visibility 10 miles    
Events Snow    
Averages and records for this station are not official NWS values.
T = Trace of Precipitation, MM = Missing Value Source: NWS Daily Summary

Daily Weather History Graph

Daily Weather History Graph

Search for Another Location

Airport or City:

Trip Planner

Search our weather history database for the weather conditions in past years. The results will help you decide how hot, cold, wet, or windy it might be!

Date:

Astronomy

Jan. 01, 2014 Rise Set
Actual Time 7:31 AM CST 4:37 PM CST
Civil Twilight 6:59 AM CST 5:09 PM CST
Nautical Twilight 6:24 AM CST 5:45 PM CST
Astronomical Twilight 5:49 AM CST 6:19 PM CST
Moon 7:20 AM CST (1/1) 5:24 PM CST (1/1)
Length of Visible Light 10h 09m
Length of Day
9h 05m
New Moon, 0% of the Moon is Illuminated
Jan 1
New Moon
Jan 7
First Quarter
Jan 15
Full
Jan 23
Last Quarter
Jan 30
New

Hourly Weather History & Observations

Time (CST) Temp. Windchill Dew Point Humidity Pressure Visibility Wind Dir Wind Speed Gust Speed Precip Events Conditions
12:15 AM 8.6 °F -6.3 °F -0.4 °F 67% 30.25 in - NE 11.5 mph - N/A   Overcast
12:35 AM 6.8 °F -5.9 °F -0.4 °F 72% 30.25 in - NE 8.1 mph - N/A   Overcast
12:55 AM 6.8 °F -8.6 °F -0.4 °F 72% 30.24 in 10.0 mi NE 11.5 mph - N/A   Overcast
1:15 AM 6.8 °F -8.6 °F -4.0 °F 61% 30.24 in - NE 11.5 mph - N/A   Overcast
1:35 AM 5.0 °F -9.1 °F -4.0 °F 66% 30.24 in - NE 9.2 mph 17.3 mph N/A   Overcast
1:55 AM 5.0 °F -11.6 °F -4.0 °F 66% 30.24 in 10.0 mi NE 12.7 mph - N/A   Overcast
2:15 AM 5.0 °F -10.0 °F -5.8 °F 61% 30.24 in 10.0 mi NE 10.4 mph - N/A   Overcast
2:35 AM 5.0 °F -8.1 °F -5.8 °F 61% 30.26 in 10.0 mi NE 8.1 mph - N/A   Overcast
2:55 AM 3.2 °F -11.3 °F -5.8 °F 66% 30.26 in 10.0 mi NNE 9.2 mph - N/A   Overcast
3:15 AM 3.2 °F -12.2 °F -7.6 °F 61% 30.25 in 10.0 mi NE 10.4 mph - N/A   Overcast
3:35 AM 3.2 °F -12.2 °F -5.8 °F 66% 30.25 in 10.0 mi NE 10.4 mph - N/A   Overcast
3:55 AM 3.2 °F -13.1 °F -7.6 °F 61% 30.25 in 10.0 mi NE 11.5 mph - N/A   Overcast
4:15 AM 3.2 °F -13.9 °F -7.6 °F 61% 30.25 in 10.0 mi NE 12.7 mph - N/A   Overcast
4:35 AM 3.2 °F -10.3 °F -5.8 °F 66% 30.26 in 10.0 mi ENE 8.1 mph - N/A   Overcast
4:55 AM 3.2 °F -13.1 °F -7.6 °F 61% 30.26 in 7.0 mi ENE 11.5 mph - N/A Snow Light Snow
5:15 AM 3.2 °F -12.2 °F -7.6 °F 61% 30.26 in 7.0 mi ENE 10.4 mph - N/A   Overcast
5:35 AM 3.2 °F -13.1 °F -5.8 °F 66% 30.26 in 10.0 mi NE 11.5 mph - N/A   Overcast
5:55 AM 3.2 °F -13.9 °F -5.8 °F 66% 30.26 in - ENE 12.7 mph - N/A   Overcast
6:15 AM 3.2 °F -13.1 °F -5.8 °F 66% 30.26 in - ENE 11.5 mph - N/A   Overcast
6:35 AM 3.2 °F -14.6 °F -5.8 °F 66% 30.25 in - NE 13.8 mph - N/A   Overcast
6:55 AM 3.2 °F -11.3 °F -4.0 °F 72% 30.27 in - NE 9.2 mph - N/A   Overcast
7:10 AM 3.2 °F -12.2 °F -4.0 °F 72% 30.27 in - NE 10.4 mph - N/A   Overcast
7:35 AM 3.2 °F -11.3 °F -4.0 °F 72% 30.28 in - NE 9.2 mph - N/A   Overcast
7:55 AM 3.2 °F -11.3 °F -4.0 °F 72% 30.28 in - NE 9.2 mph - N/A   Overcast
8:15 AM 3.2 °F -11.3 °F -4.0 °F 72% 30.29 in - NNE 9.2 mph - N/A   Overcast
8:35 AM 3.2 °F -12.2 °F -4.0 °F 72% 30.28 in - NE 10.4 mph - N/A   Overcast
8:55 AM 3.2 °F -13.1 °F -4.0 °F 72% 30.28 in - NNE 11.5 mph - N/A   Overcast
9:15 AM 5.0 °F -10.8 °F -4.0 °F 66% 30.28 in - NNE 11.5 mph - N/A   Overcast
9:35 AM 5.0 °F -10.8 °F -4.0 °F 66% 30.29 in - NNE 11.5 mph 16.1 mph N/A   Overcast
9:55 AM 5.0 °F -9.1 °F -4.0 °F 66% 30.29 in - NNE 9.2 mph - N/A   Overcast
10:15 AM 5.0 °F -9.1 °F -4.0 °F 66% 30.29 in - NNE 9.2 mph 19.6 mph N/A   Overcast
10:35 AM 6.8 °F -8.6 °F -2.2 °F 67% 30.29 in - NNE 11.5 mph - N/A   Overcast
10:55 AM 6.8 °F -8.6 °F -2.2 °F 67% 30.28 in - NE 11.5 mph 17.3 mph N/A   Overcast
11:15 AM 8.6 °F -7.7 °F -2.2 °F 62% 30.28 in - NNE 13.8 mph 19.6 mph N/A   Scattered Clouds
11:35 AM 8.6 °F -6.3 °F -0.4 °F 67% 30.26 in - NNE 11.5 mph - N/A   Clear
11:55 AM 8.6 °F -6.3 °F -0.4 °F 67% 30.26 in - NNE 11.5 mph - N/A   Clear
12:15 PM 10.4 °F -4.1 °F -0.4 °F 62% 30.26 in - NNE 11.5 mph 18.4 mph N/A   Clear
12:35 PM 10.4 °F -4.8 °F 1.4 °F 67% 30.25 in - NNE 12.7 mph - N/A   Clear
12:55 PM 12.2 °F -1.0 °F 1.4 °F 62% 30.25 in - NNE 10.4 mph - N/A   Clear
1:15 PM 12.2 °F -1.0 °F -0.4 °F 57% 30.24 in - NNE 10.4 mph - N/A   Scattered Clouds
1:35 PM 12.2 °F -0.2 °F -0.4 °F 57% 30.23 in - NNE 9.2 mph - N/A   Scattered Clouds
1:55 PM 12.2 °F -0.2 °F -0.4 °F 57% 30.23 in - NNE 9.2 mph - N/A   Clear
2:15 PM 12.2 °F -1.0 °F 1.4 °F 62% 30.22 in - NNE 10.4 mph - N/A   Clear
2:35 PM 12.2 °F -1.0 °F 1.4 °F 62% 30.22 in - NNE 10.4 mph - N/A   Clear
2:55 PM 12.2 °F -1.8 °F 1.4 °F 62% 30.22 in - NNE 11.5 mph - N/A   Clear
3:15 PM 12.2 °F -1.0 °F 1.4 °F 62% 30.24 in - NNE 10.4 mph - N/A   Clear
3:35 PM 12.2 °F -1.8 °F 1.4 °F 62% 30.24 in - NNE 11.5 mph - N/A   Clear
3:55 PM 10.4 °F -3.3 °F 1.4 °F 67% 30.24 in - NNE 10.4 mph - N/A   Scattered Clouds
4:15 PM 12.2 °F -1.8 °F 1.4 °F 62% 30.24 in - NNE 11.5 mph - N/A   Overcast
4:35 PM 10.4 °F -2.4 °F 1.4 °F 67% 30.25 in - NNE 9.2 mph - N/A   Overcast
4:55 PM 10.4 °F -4.8 °F -0.4 °F 62% 30.25 in - NNE 12.7 mph - N/A   Overcast
5:15 PM 10.4 °F -4.8 °F -0.4 °F 62% 30.26 in - NNE 12.7 mph - N/A   Overcast
5:35 PM 10.4 °F -3.3 °F -0.4 °F 62% 30.26 in - NNE 10.4 mph 17.3 mph N/A   Overcast
5:55 PM 10.4 °F -4.1 °F -0.4 °F 62% 30.26 in - NNE 11.5 mph - N/A   Overcast
6:15 PM 10.4 °F -2.4 °F -0.4 °F 62% 30.27 in - NNE 9.2 mph - N/A   Overcast
6:35 PM 10.4 °F -4.1 °F -0.4 °F 62% 30.27 in - NNE 11.5 mph - N/A   Overcast
6:55 PM 10.4 °F -5.4 °F -0.4 °F 62% 30.28 in - NNE 13.8 mph - N/A   Overcast
7:15 PM 10.4 °F -4.1 °F -0.4 °F 62% 30.28 in - NNE 11.5 mph - N/A   Overcast
7:35 PM 8.6 °F -5.5 °F -0.4 °F 67% 30.28 in - North 10.4 mph - N/A   Overcast
7:55 PM 8.6 °F -4.7 °F -0.4 °F 67% 30.27 in - NNE 9.2 mph - N/A   Overcast
8:15 PM 8.6 °F -4.7 °F -0.4 °F 67% 30.27 in - NNE 9.2 mph - N/A   Overcast
8:35 PM 8.6 °F -5.5 °F -0.4 °F 67% 30.27 in - North 10.4 mph - N/A   Overcast
8:55 PM 10.4 °F -2.4 °F -0.4 °F 62% 30.27 in - North 9.2 mph - N/A   Overcast
9:15 PM 10.4 °F -1.5 °F -0.4 °F 62% 30.27 in - NNE 8.1 mph - N/A   Overcast
9:35 PM 10.4 °F -0.4 °F -2.2 °F 57% 30.27 in - NNE 6.9 mph - N/A   Overcast
9:55 PM 10.4 °F -1.5 °F -2.2 °F 57% 30.27 in - North 8.1 mph - N/A   Overcast
10:15 PM 10.4 °F -2.4 °F -2.2 °F 57% 30.26 in - NNE 9.2 mph - N/A   Overcast
10:35 PM 10.4 °F -2.4 °F -2.2 °F 57% 30.26 in - NNE 9.2 mph - N/A   Overcast
10:55 PM 10.4 °F -3.3 °F -2.2 °F 57% 30.26 in - North 10.4 mph - N/A   Overcast
11:15 PM 8.6 °F -5.5 °F -4.0 °F 57% 30.26 in - North 10.4 mph - N/A   Overcast
11:35 PM 8.6 °F -6.3 °F -4.0 °F 57% 30.26 in - North 11.5 mph - N/A   Overcast
11:55 PM 8.6 °F -4.7 °F -4.0 °F 57% 30.25 in - North 9.2 mph - N/A   Overcast